User: anonymous   Login
Location: Unspecified
(0.0000°N, 0.0000°E)
Time: 06:57:37
(UTC+00:00)
Language:

JUGNU - Orbit

View from above orbital plane
View from above orbital plane
View from above satellite
View from above satellite

Ground track
Ground track

The orbit data is extracted from the following two-line orbital elements,

1 37839U 11058B   17202.33911175 +.00000299 +00000-0 +17440-4 0  9997
2 37839 019.9604 243.4033 0018869 199.3761 253.1069 14.12587352298427
Epoch (UTC): 21 July 2017 08:08:19
Eccentricity: 0.0018869
inclination: 19.9604°
perigee height: 837 km
apogee height: 864 km
right ascension of ascending node: 243.4033°
argument of perigee: 199.3761°
revolutions per day: 14.12587352
mean anomaly at epoch: 253.1069°
orbit number at epoch: 29842

The dashed part of the orbit path shows where the satellite is in the earth's shadow,  

DLR